Susqueda - Veïnat del Far (La Selva)





Hora UTC 21:05
Temperatura 18.1 ºC
Humedad 66.0 %
Presión 1009.3 hPa
Pluja 0.0 mm
Velocidad viento 4.8 km/h
Dirección viento N

Datos diarios 2024-06-18



Hora UTC (invierno +1h; verano +2h)
Temperatura (ºC) Humedad (%) Presión (hPa) Velocidad viento (km/h) Precipitación (mm)
Hora UTC Aire Humedad Presión Vel. Dir. Vel. Max Dir. Intent. máx 5 min.
00:05 18.3 62.0 1012.1 4.8 N 4.8 0.0
00:10 18.3 63.0 1012.1 4.8 N 6.4 0.0
00:15 18.3 63.0 1012.0 3.2 N 9.7 0.0
00:20 18.2 64.0 1012.0 3.2 N 9.7 0.0
00:25 18.0 65.0 1011.9 1.6 N 6.4 0.0
00:30 17.9 65.0 1011.8 3.2 N 6.4 0.0
00:35 17.7 67.0 1011.7 3.2 N 4.8 0.0
00:40 17.4 68.0 1011.5 3.2 N 6.4 0.0
00:45 17.3 69.0 1011.5 4.8 N 8.0 0.0
00:50 17.2 69.0 1011.3 4.8 N 8.0 0.0
00:55 17.2 69.0 1011.3 8.0 N 11.3 0.0
01:00 17.1 69.0 1011.2 6.4 N 14.5 0.0
01:05 17.1 68.0 1011.2 4.8 N 14.5 0.0
01:10 16.9 68.0 1010.9 9.7 N 12.9 0.0
01:15 17.0 68.0 1011.0 6.4 N 12.9 0.0
01:20 16.9 69.0 1011.0 3.2 N 11.3 0.0
01:25 16.7 69.0 1011.0 4.8 N 9.7 0.0
01:30 16.8 69.0 1011.0 8.0 N 11.3 0.0
01:35 17.1 70.0 1011.1 4.8 N 11.3 0.0
01:40 17.2 70.0 1011.0 6.4 N 9.7 0.0
01:45 17.2 69.0 1011.1 4.8 N 8.0 0.0
01:50 17.2 69.0 1010.9 8.0 N 9.7 0.0
01:55 17.3 69.0 1010.9 4.8 N 9.7 0.0
02:00 17.2 69.0 1011.0 4.8 N 8.0 0.0
02:05 16.9 70.0 1010.9 4.8 N 9.7 0.0
02:10 16.8 70.0 1010.7 3.2 N 9.7 0.0
02:15 16.7 71.0 1010.7 8.0 N 8.0 0.0
02:20 16.8 71.0 1010.6 4.8 N 12.9 0.0
02:25 17.2 68.0 1010.6 9.7 N 14.5 0.0
02:30 17.6 65.0 1010.5 12.9 N 16.1 0.0
02:35 17.9 62.0 1010.3 4.8 N 16.1 0.0
02:40 18.1 64.0 1010.4 11.3 N 16.1 0.0
02:45 18.1 63.0 1010.4 8.0 N 14.5 0.0
02:50 18.1 64.0 1010.5 6.4 N 14.5 0.0
02:55 18.0 63.0 1010.4 4.8 N 12.9 0.0
03:00 18.0 63.0 1010.3 6.4 N 11.3 0.0
03:05 18.0 63.0 1010.3 6.4 N 9.7 0.0
03:10 18.1 64.0 1010.3 3.2 N 9.7 0.0
03:15 18.1 63.0 1010.3 6.4 N 9.7 0.0
03:20 18.1 64.0 1010.4 6.4 N 11.3 0.0
03:25 18.1 65.0 1010.5 3.2 N 11.3 0.0
03:30 18.0 64.0 1010.5 4.8 N 12.9 0.0
03:35 18.0 64.0 1010.5 6.4 N 12.9 0.0
03:40 18.1 63.0 1010.5 4.8 N 9.7 0.0
03:45 18.0 63.0 1010.5 4.8 N 9.7 0.0
03:50 18.0 63.0 1010.5 4.8 N 9.7 0.0
03:55 17.9 63.0 1010.5 3.2 N 9.7 0.0
04:00 17.8 63.0 1010.5 4.8 N 8.0 0.0
04:05 17.8 63.0 1010.4 3.2 N 8.0 0.0
04:10 17.7 63.0 1010.4 4.8 N 6.4 0.0
04:15 17.7 63.0 1010.3 1.6 N 6.4 0.0
04:20 17.6 63.0 1010.3 3.2 N 6.4 0.0
04:25 17.6 64.0 1010.3 3.2 N 6.4 0.0
04:30 17.5 65.0 1010.3 1.6 N 4.8 0.0
04:35 17.4 66.0 1010.3 0.0 N 4.8 0.0
04:40 17.3 66.0 1010.3 1.6 N 3.2 0.0
04:45 17.2 66.0 1010.2 0.0 N 3.2 0.0
04:50 17.1 66.0 1010.2 1.6 N 1.6 0.0
04:55 17.1 65.0 1010.2 3.2 N 3.2 0.0
05:00 17.2 65.0 1010.2 3.2 N 3.2 0.0
05:05 17.2 65.0 1010.1 0.0 N 4.8 0.0
05:10 17.2 65.0 1010.3 1.6 N 4.8 0.0
05:15 17.1 65.0 1010.4 0.0 N 3.2 0.0
05:20 17.1 66.0 1010.4 0.0 N 1.6 0.0
05:25 17.1 65.0 1010.5 0.0 N 1.6 0.0
05:30 17.1 65.0 1010.5 0.0 N 1.6 0.0
05:35 17.3 65.0 1010.5 1.6 N 3.2 0.0
05:40 17.7 64.0 1010.6 1.6 N 4.8 0.0
05:45 18.0 63.0 1010.6 3.2 N 4.8 0.0
05:50 18.2 63.0 1010.6 4.8 N 6.4 0.0
05:55 18.2 63.0 1010.7 4.8 N 6.4 0.0
06:00 18.1 65.0 1010.7 4.8 N 6.4 0.0
06:05 17.9 65.0 1010.8 3.2 N 6.4 0.0
06:10 17.9 65.0 1010.9 3.2 N 6.4 0.0
06:15 17.9 66.0 1010.9 1.6 N 4.8 0.0
06:20 17.9 65.0 1010.9 1.6 N 4.8 0.0
06:25 17.9 64.0 1011.0 1.6 N 3.2 0.0
06:30 17.9 65.0 1011.0 0.0 N 4.8 0.0
06:35 17.8 65.0 1011.1 4.8 N 4.8 0.0
06:40 17.7 66.0 1011.2 3.2 N 6.4 0.0
06:45 17.6 66.0 1011.2 1.6 N 6.4 0.0
06:50 17.5 66.0 1011.2 1.6 N 3.2 0.0
06:55 17.4 66.0 1011.2 1.6 N 4.8 0.0
07:00 17.4 66.0 1011.2 0.0 N 4.8 0.0
07:05 17.6 66.0 1011.2 1.6 N 3.2 0.0
07:10 17.6 64.0 1011.2 0.0 N 3.2 0.0
07:15 17.7 64.0 1011.3 0.0 N 3.2 0.0
07:20 17.8 64.0 1011.2 0.0 N 3.2 0.0
07:25 18.1 64.0 1011.2 0.0 N 4.8 0.0
07:30 18.3 64.0 1011.1 0.0 N 4.8 0.0
07:35 18.7 67.0 1011.1 4.8 N 4.8 0.0
07:40 19.1 68.0 1011.1 1.6 N 8.0 0.0
07:45 19.2 66.0 1011.0 1.6 N 8.0 0.0
07:50 19.3 67.0 1010.9 3.2 N 6.4 0.0
07:55 19.3 69.0 1010.9 3.2 N 6.4 0.0
08:00 19.3 71.0 1010.8 1.6 N 8.0 0.0
08:05 19.3 72.0 1010.7 3.2 N 8.0 0.0
08:10 19.3 71.0 1010.8 3.2 N 6.4 0.0
08:15 19.6 70.0 1010.6 3.2 N 4.8 0.0
08:20 19.8 69.0 1010.6 6.4 N 6.4 0.0
08:25 19.9 68.0 1010.8 3.2 N 6.4 0.0
08:30 19.9 68.0 1010.7 3.2 N 4.8 0.0
08:35 20.1 68.0 1010.9 1.6 N 4.8 0.0
08:40 20.1 68.0 1010.6 4.8 N 6.4 0.0
08:45 19.9 68.0 1010.7 3.2 N 11.3 0.0
08:50 19.8 68.0 1010.6 1.6 N 11.3 0.0
08:55 19.9 67.0 1010.4 4.8 N 8.0 0.0
09:00 19.7 66.0 1010.6 3.2 N 8.0 0.0
09:05 19.8 67.0 1010.7 4.8 N 9.7 0.0
09:10 20.1 66.0 1010.8 1.6 N 6.4 0.0
09:15 20.2 63.0 1010.9 1.6 N 8.0 0.0
09:20 20.3 64.0 1010.8 4.8 N 8.0 0.0
09:25 20.4 64.0 1010.7 3.2 N 8.0 0.0
09:30 20.6 65.0 1010.9 1.6 N 9.7 0.0
09:35 20.7 64.0 1010.9 0.0 N 9.7 0.0
09:40 20.7 65.0 1011.0 1.6 N 11.3 0.0
09:45 20.8 64.0 1011.1 3.2 N 8.0 0.0
09:50 20.9 65.0 1010.9 6.4 N 9.7 0.0
09:55 20.9 66.0 1011.1 8.0 N 8.0 0.0
10:00 20.7 67.0 1010.8 3.2 N 11.3 0.0
10:05 20.8 69.0 1011.0 3.2 N 11.3 0.0
10:10 20.9 67.0 1011.1 1.6 N 9.7 0.0
10:15 20.8 67.0 1011.1 1.6 N 12.9 0.0
10:20 20.9 66.0 1011.3 1.6 N 12.9 0.0
10:25 20.9 65.0 1011.2 4.8 N 11.3 0.0
10:30 21.2 67.0 1011.2 3.2 N 11.3 0.0
10:35 21.2 64.0 1011.2 3.2 N 11.3 0.0
10:40 21.1 64.0 1011.2 8.0 N 11.3 0.0
10:45 21.0 64.0 1011.2 6.4 N 11.3 0.0
10:50 20.9 64.0 1011.1 6.4 N 14.5 0.0
10:55 20.8 64.0 1011.1 3.2 N 14.5 0.0
11:00 20.9 64.0 1011.2 4.8 N 14.5 0.0
11:05 20.8 64.0 1011.1 6.4 N 14.5 0.0
11:10 21.1 62.0 1011.1 11.3 N 11.3 0.0
11:15 21.3 63.0 1011.1 3.2 N 11.3 0.0
11:20 21.8 62.0 1011.2 8.0 N 9.7 0.0
11:25 21.8 62.0 1011.1 4.8 N 11.3 0.0
11:30 21.8 62.0 1011.1 8.0 N 12.9 0.0
11:35 22.1 62.0 1010.9 3.2 N 12.9 0.0
11:40 22.5 63.0 1010.9 6.4 N 11.3 0.0
11:45 22.5 59.0 1010.9 4.8 N 12.9 0.0
11:50 22.3 59.0 1010.8 4.8 N 12.9 0.0
11:55 22.3 60.0 1010.8 3.2 N 9.7 0.0
12:00 22.8 61.0 1010.7 3.2 N 9.7 0.0
12:05 22.7 59.0 1010.8 4.8 N 14.5 0.0
12:10 22.7 59.0 1010.6 3.2 N 14.5 0.0
12:15 22.8 60.0 1010.7 4.8 N 14.5 0.0
12:20 23.1 60.0 1010.6 6.4 N 11.3 0.0
12:25 23.2 57.0 1010.5 3.2 N 11.3 0.0
12:30 23.2 61.0 1010.4 3.2 N 11.3 0.0
12:35 23.2 61.0 1010.3 3.2 N 14.5 0.0
12:40 23.1 60.0 1010.4 3.2 N 14.5 0.0
12:45 23.1 61.0 1010.5 6.4 N 11.3 0.0
12:50 23.1 60.0 1010.5 3.2 N 11.3 0.0
12:55 23.0 60.0 1010.6 1.6 N 16.1 0.0
13:00 22.9 61.0 1010.7 3.2 N 12.9 0.0
13:05 23.1 61.0 1010.6 1.6 N 16.1 0.0
13:10 23.1 59.0 1010.6 1.6 N 16.1 0.0
13:15 23.2 60.0 1010.6 3.2 N 11.3 0.0
13:20 23.4 60.0 1010.7 1.6 N 8.0 0.0
13:25 23.7 60.0 1010.8 3.2 N 9.7 0.0
13:30 23.7 60.0 1010.5 8.0 N 9.7 0.0
13:35 23.6 58.0 1010.6 1.6 N 11.3 0.0
13:40 23.5 60.0 1010.6 4.8 N 11.3 0.0
13:45 23.3 60.0 1010.6 4.8 N 11.3 0.0
13:50 23.3 59.0 1010.6 1.6 N 11.3 0.0
13:55 23.2 60.0 1010.6 3.2 N 9.7 0.0
14:00 23.2 59.0 1010.7 4.8 N 9.7 0.0
14:05 23.3 62.0 1010.7 3.2 N 9.7 0.0
14:10 23.4 58.0 1010.6 4.8 N 9.7 0.0
14:15 23.4 60.0 1010.6 3.2 N 9.7 0.0
14:20 23.6 61.0 1010.5 4.8 N 6.4 0.0
14:25 23.5 60.0 1010.4 3.2 N 6.4 0.0
14:30 23.7 60.0 1010.2 3.2 N 11.3 0.0
14:35 23.8 60.0 1010.1 3.2 N 11.3 0.0
14:40 23.9 58.0 1010.1 1.6 N 9.7 0.0
14:45 24.2 60.0 1010.0 1.6 N 9.7 0.0
14:50 24.2 58.0 1010.1 4.8 N 11.3 0.0
14:55 24.1 58.0 1010.0 4.8 N 11.3 0.0
15:00 23.9 60.0 1009.8 3.2 N 9.7 0.0
15:05 23.9 60.0 1009.9 4.8 N 9.7 0.0
15:10 23.8 60.0 1009.9 6.4 N 9.7 0.0
15:15 23.8 59.0 1009.8 6.4 N 9.7 0.0
15:20 23.7 60.0 1009.8 3.2 N 8.0 0.0
15:25 23.7 60.0 1009.6 4.8 N 11.3 0.0
15:30 23.8 60.0 1009.4 14.5 N 16.1 0.0
15:35 23.7 60.0 1009.5 4.8 N 16.1 0.0
15:40 23.6 61.0 1009.4 3.2 N 14.5 0.0
15:40 23.3 62.0 1009.6 3.2 N 12.9 0.0
15:50 23.1 63.0 1009.4 3.2 N 16.1 0.0
15:55 22.9 64.0 1009.4 4.8 N 16.1 0.0
16:00 22.8 65.0 1009.3 4.8 N 14.5 0.0
16:05 22.6 65.0 1009.3 1.6 N 14.5 0.0
16:10 22.7 66.0 1009.2 3.2 N 12.9 0.0
16:15 22.6 66.0 1009.2 6.4 N 11.3 0.0
16:20 22.3 66.0 1009.1 6.4 N 12.9 0.0
16:25 22.3 67.0 1008.9 4.8 N 11.3 0.0
16:30 22.1 67.0 1008.9 6.4 N 11.3 0.0
16:35 22.0 68.0 1008.9 3.2 N 8.0 0.0
16:40 22.1 69.0 1008.9 1.6 N 8.0 0.0
16:45 22.3 68.0 1008.8 1.6 N 8.0 0.0
16:50 22.4 67.0 1008.7 3.2 N 6.4 0.0
16:55 22.6 67.0 1008.7 1.6 N 4.8 0.0
17:00 22.7 66.0 1008.7 3.2 N 4.8 0.0
17:05 22.7 67.0 1008.7 1.6 N 4.8 0.0
17:10 22.6 67.0 1008.7 1.6 N 3.2 0.0
17:15 22.4 67.0 1008.7 1.6 N 4.8 0.0
17:20 22.1 67.0 1008.7 1.6 N 4.8 0.0
17:25 21.8 68.0 1008.7 3.2 N 4.8 0.0
17:30 21.4 69.0 1008.6 1.6 N 4.8 0.0
17:35 21.2 70.0 1008.6 1.6 N 4.8 0.0
17:40 21.1 70.0 1008.5 3.2 N 6.4 0.0
17:45 21.0 71.0 1008.6 3.2 N 6.4 0.0
17:50 20.7 72.0 1008.4 4.8 N 6.4 0.0
17:55 20.4 71.0 1008.4 3.2 N 8.0 0.0
18:00 20.3 71.0 1008.5 4.8 N 6.4 0.0
18:05 20.2 71.0 1008.5 1.6 N 4.8 0.0
18:10 20.2 70.0 1008.4 1.6 N 3.2 0.0
18:15 20.2 70.0 1008.6 0.0 N 3.2 0.0
18:20 20.2 70.0 1008.4 0.0 N 1.6 0.0
18:25 20.2 70.0 1008.5 0.0 N 3.2 0.0
18:30 20.2 70.0 1008.4 0.0 N 3.2 0.0
18:35 20.2 70.0 1008.3 0.0 N 3.2 0.0
18:40 20.2 69.0 1008.3 0.0 N 1.6 0.0
18:45 20.2 70.0 1008.3 0.0 N 3.2 0.0
18:50 20.1 70.0 1008.2 0.0 N 3.2 0.0
18:55 20.0 69.0 1008.4 0.0 N 3.2 0.0
19:00 19.9 70.0 1008.4 0.0 N 3.2 0.0
19:05 19.8 70.0 1008.2 1.6 N 3.2 0.0
19:10 19.7 68.0 1008.3 0.0 N 3.2 0.0
19:15 19.5 66.0 1008.2 0.0 N 4.8 0.0
19:20 19.4 63.0 1008.3 0.0 N 4.8 0.0
19:25 19.3 63.0 1008.3 1.6 N 3.2 0.0
19:30 19.2 63.0 1008.3 0.0 N 3.2 0.0
19:35 19.0 64.0 1008.4 0.0 N 3.2 0.0
19:40 18.8 64.0 1008.5 1.6 N 1.6 0.0
19:45 18.7 64.0 1008.4 1.6 N 3.2 0.0
19:50 18.6 64.0 1008.5 1.6 N 4.8 0.0
19:55 18.3 65.0 1008.6 3.2 N 4.8 0.0
20:00 18.2 65.0 1008.8 1.6 N 4.8 0.0
20:05 18.1 65.0 1008.7 1.6 N 4.8 0.0
20:10 17.9 66.0 1008.9 1.6 N 4.8 0.0
20:15 18.1 66.0 1008.9 4.8 N 6.4 0.0
20:20 18.4 65.0 1009.0 6.4 N 6.4 0.0
20:25 18.8 63.0 1009.1 6.4 N 6.4 0.0
20:30 18.9 62.0 1009.3 1.6 N 6.4 0.0
20:35 18.8 63.0 1009.3 1.6 N 6.4 0.0
20:40 18.5 63.0 1009.3 3.2 N 3.2 0.0
20:45 18.3 64.0 1009.3 3.2 N 4.8 0.0
20:50 18.2 65.0 1009.3 1.6 N 4.8 0.0
20:55 18.1 65.0 1009.4 3.2 N 4.8 0.0
21:00 18.1 66.0 1009.3 0.0 N 3.2 0.0
21:05 18.1 66.0 1009.3 4.8 N 4.8 0.0
Máxima 24.2 72.0 1012.1 14.5 N 16.1 0.0
Mínima 16.7 57.0 1008.2
Total 0.0